Location: Unspecified
(0.0000°N, 0.0000°E)
Time: 09:49:18
(UTC+02:00)

Palapa 6 Rocket - Visible Passes

Search period start: 04 September 2015 00:00
Search period end: 14 September 2015 00:00
Orbit: 485 x 1226 km, 22.7° (Epoch: 02 September)

Date Brightness Start Highest point End Pass type
(mag) Time Alt. Az. Time Alt. Az. Time Alt. Az.
04 Sep 6.1 06:44:59 10° S 06:46:22 11° S 06:47:46 10° SSE visible
04 Sep 4.4 21:15:12 10° NW 21:21:22 51° NNE 21:24:11 34° E visible
04 Sep 6.1 23:03:46 10° WNW 23:06:09 23° W 23:06:09 23° W visible
05 Sep 6.1 06:30:25 10° SSW 06:33:11 13° S 06:35:50 10° SE visible
05 Sep 4.3 21:01:54 10° NW 21:07:54 57° NNE 21:11:43 28° E visible
05 Sep 5.8 22:50:34 10° W 22:53:41 29° W 22:53:41 29° W visible
06 Sep 6.0 06:17:33 13° SSW 06:19:57 15° S 06:23:26 10° SE visible
06 Sep 4.1 20:48:40 10° NW 20:54:27 64° NNE 20:59:18 21° ESE visible
06 Sep 5.4 22:37:24 10° W 22:41:16 34° WSW 22:41:16 34° WSW visible
07 Sep 5.9 06:04:59 16° S 06:06:42 18° SSE 06:10:52 10° SE visible
07 Sep 3.9 20:35:28 10° WNW 20:41:02 73° NNE 20:46:54 15° ESE visible
07 Sep 5.2 22:24:19 10° W 22:28:52 37° SW 22:28:52 37° SW visible
08 Sep 5.8 05:52:28 20° S 05:53:25 20° SSE 05:58:10 10° ESE visible
08 Sep 3.8 20:22:18 10° WNW 20:27:39 83° NNE 20:34:23 10° ESE visible
08 Sep 5.1 22:11:19 10° W 22:16:29 36° SSW 22:16:29 36° SSW visible
09 Sep 5.7 05:39:59 23° SSE 05:40:05 23° SSE 05:45:21 10° ESE visible
09 Sep 4.5 07:23:09 10° SW 07:29:57 53° SSE 07:35:29 10° E visible
09 Sep 5.1 21:58:22 10° W 22:03:43 31° SSW 22:04:07 31° S visible
10 Sep 5.7 05:27:32 26° SSE 05:27:32 26° SSE 05:32:27 10° ESE visible
10 Sep 4.3 07:09:30 10° WSW 07:16:34 63° SSE 07:22:25 10° ENE visible
10 Sep 5.3 21:45:29 10° WSW 21:50:23 27° SSW 21:51:44 25° S visible
11 Sep 5.7 05:15:06 27° SE 05:15:06 27° SE 05:19:28 10° ESE visible
11 Sep 4.2 06:57:05 16° WSW 07:03:08 72° SSE 07:09:17 10° ENE visible
11 Sep 5.5 21:32:41 10° WSW 21:37:06 23° SSW 21:39:21 19° SSE visible
12 Sep 5.9 05:02:42 26° ESE 05:02:42 26° ESE 05:06:24 10° E visible
12 Sep 4.2 06:44:41 23° WSW 06:49:40 82° SSE 06:56:06 10° ENE visible
12 Sep 5.6 21:19:59 10° WSW 21:23:51 19° SSW 21:26:56 14° SSE visible
13 Sep 6.1 04:50:20 24° ESE 04:50:20 24° ESE 04:53:16 10° E visible
13 Sep 4.2 06:32:18 33° WSW 06:36:10 88° NNW 06:42:51 10° ENE visible
13 Sep 5.7 21:07:25 10° SW 21:10:38 16° SSW 21:14:09 10° SSE visible
